map of AKX home
AKX - Airport
Location
City:  Aktobe, Aqtöbe, Kazakhstan
Name:Aktobe Airport
ICAO:UATT
IATA:AKX

Details
Type:Airport (Aerodrome, Airfield)
Use:Public/Civil, International (customs port of entry)
Latitude:50°14'45"N (50.245833)
Longitude:57°12'24"E (57.206667)
Elevation:738 ft (225 m)
Variation:10.75°E (WMM2015v2 magnetic declination)
0.09° annual change
Runways:1
Longest:10509 × 151 ft (3203 × 46 m), paved

Time
Time Zone:UTC+5
Local Time:

Weather
METAR:UATT 041400Z 27006MPS 9999 SCT017 M09/M13 Q1027 R31/810255 NOSIG RMK QFE750/1000
TAF:UATT 041100Z 0412/0512 33005MPS 3000 -SHSN BR SCT005 BKN010CB TXM10/0412Z TNM24/0506Z
TEMPO 0415/0503 1500 SHSN BKN003 BKN010CB
TEMPO 0503/0512 06010MPS BKN005 BKN010CB

Related Locations
Nearby:
Farthest:IPC: 10690 mi / 17203 km
Easter Island (Isla de Pascua, Rapa Nui) [Mataveri Intl], VS, CL

Find:

   beyond  
but within

Other Information
Maps:
NOTAMs:
Links:
Sources:

  
  • flag of Kazakhstan
  

Sectional Chart

Flight Planning
at skyvector.com

Satellite Image

Google Maps Satellite view

 

Copyright © 2004-2019 Karl L. Swartz. All rights reserved.
The Great Circle Mapper name and logo are trademarks of the Great Circle Mapper.
All other trademarks mentioned herein belong to their respective owners.
Please see credits for attibutions and further copyright information.

  Follow gcmap on Facebook Follow gcmap on Twitter GCmap on LinkedIn

hCard Microformat

Geo Microformat